Time,TemperatureF,DewpointF,PressureIn,WindDirection,WindDirectionDegrees,WindSpeedMPH,WindSpeedGustMPH,Humidity,HourlyPrecipIn,Conditions,Clouds,dailyrainin,SoftwareType,DateUTC
2013-01-24 00:07:00,7.3,6.9,29.91,SE,135,0.0,-999.0,98,-99.99,,,0.00,Acu-Link.com,2013-01-24 05:07:00,
2013-01-24 00:23:00,7.3,6.9,29.90,ESE,112,0.0,-999.0,98,-99.99,,,0.00,Acu-Link.com,2013-01-24 05:23:00,
2013-01-24 00:38:00,7.3,6.9,29.90,ESE,112,0.0,-999.0,98,-99.99,,,0.00,Acu-Link.com,2013-01-24 05:38:00,
2013-01-24 00:54:00,7.3,6.9,29.89,ESE,112,0.0,-999.0,98,-99.99,,,0.00,Acu-Link.com,2013-01-24 05:54:00,
2013-01-24 01:09:00,7.3,6.9,29.90,ESE,112,0.0,-999.0,98,-99.99,,,0.00,Acu-Link.com,2013-01-24 06:09:00,
2013-01-24 01:24:00,7.3,6.9,29.89,ESE,112,0.0,-999.0,98,-99.99,,,0.00,Acu-Link.com,2013-01-24 06:24:00,
2013-01-24 01:40:00,7.3,6.9,29.90,SSW,202,0.0,-999.0,98,-99.99,,,0.00,Acu-Link.com,2013-01-24 06:40:00,
2013-01-24 01:55:00,7.3,6.9,29.91,SE,135,0.0,-999.0,98,-99.99,,,0.00,Acu-Link.com,2013-01-24 06:55:00,
2013-01-24 02:11:00,7.3,6.9,29.91,SE,135,0.0,-999.0,98,-99.99,,,0.00,Acu-Link.com,2013-01-24 07:11:00,
2013-01-24 02:26:00,7.3,6.9,29.92,SE,135,0.0,-999.0,98,-99.99,,,0.00,Acu-Link.com,2013-01-24 07:26:00,
2013-01-24 02:41:00,7.3,6.9,29.92,SE,135,0.0,-999.0,98,-99.99,,,0.00,Acu-Link.com,2013-01-24 07:41:00,
2013-01-24 02:57:00,7.3,6.9,29.93,South,180,0.0,-999.0,98,-99.99,,,0.00,Acu-Link.com,2013-01-24 07:57:00,
2013-01-24 03:12:00,7.3,6.9,29.93,SE,135,0.0,-999.0,98,-99.99,,,0.00,Acu-Link.com,2013-01-24 08:12:00,
2013-01-24 03:28:00,7.5,7.1,29.94,SE,135,0.0,-999.0,98,-99.99,,,0.00,Acu-Link.com,2013-01-24 08:28:00,
2013-01-24 03:43:00,7.5,7.1,29.94,South,180,0.0,-999.0,98,-99.99,,,0.00,Acu-Link.com,2013-01-24 08:43:00,
2013-01-24 03:59:00,7.9,7.5,29.95,SW,225,0.0,-999.0,98,-99.99,,,0.00,Acu-Link.com,2013-01-24 08:59:00,
2013-01-24 04:16:00,7.9,7.5,29.95,SSW,202,0.0,-999.0,98,-99.99,,,0.00,Acu-Link.com,2013-01-24 09:16:00,
2013-01-24 04:35:00,7.9,7.5,29.96,SSE,157,0.0,-999.0,98,-99.99,,,0.00,Acu-Link.com,2013-01-24 09:35:00,
2013-01-24 04:50:00,7.5,7.1,29.97,SE,135,0.0,-999.0,98,-99.99,,,0.00,Acu-Link.com,2013-01-24 09:50:00,
2013-01-24 05:05:00,7.3,6.9,29.99,SSE,157,0.0,-999.0,98,-99.99,,,0.00,Acu-Link.com,2013-01-24 10:05:00,
2013-01-24 05:21:00,7.3,6.9,30.00,ESE,112,0.0,-999.0,98,-99.99,,,0.00,Acu-Link.com,2013-01-24 10:21:00,
2013-01-24 05:36:00,7.5,7.1,30.00,SSW,202,0.0,-999.0,98,-99.99,,,0.00,Acu-Link.com,2013-01-24 10:36:00,
2013-01-24 05:51:00,7.7,7.3,30.01,South,180,0.0,-999.0,98,-99.99,,,0.00,Acu-Link.com,2013-01-24 10:51:00,
2013-01-24 06:07:00,7.9,7.5,30.03,West,270,0.0,-999.0,98,-99.99,,,0.00,Acu-Link.com,2013-01-24 11:07:00,
2013-01-24 06:22:00,8.2,7.8,30.04,NW,315,0.0,-999.0,98,-99.99,,,0.00,Acu-Link.com,2013-01-24 11:22:00,
2013-01-24 06:38:00,8.8,8.4,30.04,West,270,2.7,-999.0,98,-99.99,,,0.00,Acu-Link.com,2013-01-24 11:38:00,
2013-01-24 06:53:00,9.7,9.3,30.06,West,270,3.2,-999.0,98,-99.99,,,0.00,Acu-Link.com,2013-01-24 11:53:00,
2013-01-24 07:09:00,10.2,9.7,30.07,NNW,337,3.7,-999.0,98,-99.99,,,0.00,Acu-Link.com,2013-01-24 12:09:00,
2013-01-24 07:24:00,10.0,9.6,30.09,WNW,292,4.2,-999.0,98,-99.99,,,0.00,Acu-Link.com,2013-01-24 12:24:00,
2013-01-24 07:39:00,9.9,9.5,30.09,WNW,292,2.7,-999.0,98,-99.99,,,0.00,Acu-Link.com,2013-01-24 12:39:00,
2013-01-24 07:55:00,10.6,10.1,30.10,West,270,2.7,-999.0,98,-99.99,,,0.00,Acu-Link.com,2013-01-24 12:55:00,
2013-01-24 08:11:00,10.8,10.3,30.12,SW,225,3.7,-999.0,98,-99.99,,,0.00,Acu-Link.com,2013-01-24 13:11:00,
2013-01-24 08:26:00,11.1,10.6,30.12,West,270,3.7,-999.0,98,-99.99,,,0.00,Acu-Link.com,2013-01-24 13:26:00,
2013-01-24 08:42:00,12.0,11.5,30.13,West,270,2.7,-999.0,98,-99.99,,,0.00,Acu-Link.com,2013-01-24 13:42:00,
2013-01-24 08:57:00,12.0,11.5,30.13,West,270,5.3,-999.0,98,-99.99,,,0.00,Acu-Link.com,2013-01-24 13:57:00,
2013-01-24 09:12:00,12.0,11.5,30.15,West,270,6.8,-999.0,98,-99.99,,,0.00,Acu-Link.com,2013-01-24 14:12:00,
2013-01-24 09:28:00,13.3,12.8,30.15,SW,225,3.7,-999.0,98,-99.99,,,0.00,Acu-Link.com,2013-01-24 14:28:00,
2013-01-24 09:43:00,14.4,12.8,30.16,West,270,4.2,-999.0,93,-99.99,,,0.00,Acu-Link.com,2013-01-24 14:43:00,
2013-01-24 09:58:00,16.0,13.3,30.17,West,270,4.7,-999.0,89,-99.99,,,0.00,Acu-Link.com,2013-01-24 14:58:00,
2013-01-24 10:14:00,16.3,13.1,30.18,West,270,3.7,-999.0,87,-99.99,,,0.00,Acu-Link.com,2013-01-24 15:14:00,
2013-01-24 10:30:00,16.3,12.3,30.20,NW,315,5.8,-999.0,84,-99.99,,,0.00,Acu-Link.com,2013-01-24 15:30:00,
2013-01-24 10:45:00,17.6,12.5,30.20,SW,225,5.8,-999.0,80,-99.99,,,0.00,Acu-Link.com,2013-01-24 15:45:00,
2013-01-24 11:01:00,18.1,11.8,30.22,North,0,4.7,-999.0,76,-99.99,,,0.00,Acu-Link.com,2013-01-24 16:01:00,
2013-01-24 11:16:00,19.0,10.2,30.22,WSW,247,6.8,-999.0,68,-99.99,,,0.00,Acu-Link.com,2013-01-24 16:16:00,
2013-01-24 11:31:00,18.9,9.8,30.22,West,270,7.8,-999.0,67,-99.99,,,0.00,Acu-Link.com,2013-01-24 16:31:00,
2013-01-24 11:46:00,19.4,8.9,30.23,SSW,202,8.9,-999.0,63,-99.99,,,0.00,Acu-Link.com,2013-01-24 16:46:00,
2013-01-24 12:01:00,18.1,8.3,30.23,West,270,14.0,-999.0,65,-99.99,,,0.00,Acu-Link.com,2013-01-24 17:01:00,
2013-01-24 12:17:00,18.1,8.7,30.24,WSW,247,6.3,-999.0,66,-99.99,,,0.00,Acu-Link.com,2013-01-24 17:17:00,
2013-01-24 12:32:00,19.4,9.6,30.23,NNW,337,5.8,-999.0,65,-99.99,,,0.00,Acu-Link.com,2013-01-24 17:32:00,
2013-01-24 12:47:00,17.6,8.2,30.24,WNW,292,7.3,-999.0,66,-99.99,,,0.00,Acu-Link.com,2013-01-24 17:47:00,
2013-01-24 13:03:00,18.7,7.9,30.23,SW,225,11.4,-999.0,62,-99.99,,,0.00,Acu-Link.com,2013-01-24 18:03:00,
2013-01-24 13:18:00,20.5,8.5,30.24,NW,315,13.5,-999.0,59,-99.99,,,0.00,Acu-Link.com,2013-01-24 18:18:00,
2013-01-24 13:34:00,20.5,8.5,30.24,WSW,247,5.8,-999.0,59,-99.99,,,0.00,Acu-Link.com,2013-01-24 18:34:00,
2013-01-24 13:49:00,18.9,8.1,30.24,SSW,202,13.0,-999.0,62,-99.99,,,0.00,Acu-Link.com,2013-01-24 18:49:00,
2013-01-24 14:04:00,17.4,8.0,30.24,SW,225,8.3,-999.0,66,-99.99,,,0.00,Acu-Link.com,2013-01-24 19:04:00,
2013-01-24 14:19:00,19.8,9.6,30.25,SSW,202,7.3,-999.0,64,-99.99,,,0.00,Acu-Link.com,2013-01-24 19:19:00,
2013-01-24 14:35:00,18.0,7.6,30.25,West,270,7.3,-999.0,63,-99.99,,,0.00,Acu-Link.com,2013-01-24 19:35:00,
2013-01-24 14:50:00,19.9,8.3,30.26,NNW,337,11.9,-999.0,60,-99.99,,,0.00,Acu-Link.com,2013-01-24 19:50:00,
2013-01-24 15:06:00,19.0,6.3,30.27,North,0,3.7,-999.0,57,-99.99,,,0.00,Acu-Link.com,2013-01-24 20:06:00,
2013-01-24 15:22:00,19.9,6.8,30.28,WSW,247,9.9,-999.0,56,-99.99,,,0.00,Acu-Link.com,2013-01-24 20:22:00,
2013-01-24 15:37:00,19.8,6.3,30.28,West,270,4.7,-999.0,55,-99.99,,,0.00,Acu-Link.com,2013-01-24 20:37:00,
2013-01-24 15:52:00,19.2,4.9,30.28,NW,315,8.9,-999.0,53,-99.99,,,0.00,Acu-Link.com,2013-01-24 20:52:00,
2013-01-24 16:08:00,18.1,2.6,30.29,NNW,337,9.9,-999.0,50,-99.99,,,0.00,Acu-Link.com,2013-01-24 21:08:00,
2013-01-24 16:23:00,17.2,0.0,30.29,WNW,292,7.8,-999.0,46,-99.99,,,0.00,Acu-Link.com,2013-01-24 21:23:00,
2013-01-24 16:39:00,17.8,0.1,30.30,WNW,292,7.8,-999.0,45,-99.99,,,0.00,Acu-Link.com,2013-01-24 21:39:00,
2013-01-24 16:54:00,16.7,-1.4,30.31,SW,225,2.7,-999.0,44,-99.99,,,0.00,Acu-Link.com,2013-01-24 21:54:00,
2013-01-24 17:10:00,16.3,-1.7,30.31,West,270,5.8,-999.0,44,-99.99,,,0.00,Acu-Link.com,2013-01-24 22:10:00,
2013-01-24 17:25:00,15.8,-1.7,30.32,WSW,247,7.8,-999.0,45,-99.99,,,0.00,Acu-Link.com,2013-01-24 22:25:00,
2013-01-24 17:41:00,15.1,-1.9,30.33,West,270,0.0,-999.0,46,-99.99,,,0.00,Acu-Link.com,2013-01-24 22:41:00,
2013-01-24 17:56:00,14.7,-0.5,30.33,West,270,5.8,-999.0,50,-99.99,,,0.00,Acu-Link.com,2013-01-24 22:56:00,
2013-01-24 18:11:00,14.0,-0.8,30.35,NW,315,0.0,-999.0,51,-99.99,,,0.00,Acu-Link.com,2013-01-24 23:11:00,
2013-01-24 18:27:00,13.5,-0.8,30.35,West,270,0.0,-999.0,52,-99.99,,,0.00,Acu-Link.com,2013-01-24 23:27:00,
2013-01-24 18:42:00,13.1,-0.4,30.36,WSW,247,0.0,-999.0,54,-99.99,,,0.00,Acu-Link.com,2013-01-24 23:42:00,
2013-01-24 18:58:00,12.9,-0.6,30.37,West,270,4.7,-999.0,54,-99.99,,,0.00,Acu-Link.com,2013-01-24 23:58:00,
2013-01-24 19:13:00,12.2,-0.8,30.38,NW,315,0.0,-999.0,55,-99.99,,,0.00,Acu-Link.com,2013-01-25 00:13:00,
2013-01-24 19:28:00,11.8,-0.8,30.38,NW,315,0.0,-999.0,56,-99.99,,,0.00,Acu-Link.com,2013-01-25 00:28:00,
2013-01-24 19:43:00,11.5,0.0,30.38,WNW,292,0.0,-999.0,59,-99.99,,,0.00,Acu-Link.com,2013-01-25 00:43:00,
2013-01-24 19:59:00,11.5,-0.7,30.37,WNW,292,5.3,-999.0,57,-99.99,,,0.00,Acu-Link.com,2013-01-25 00:59:00,
2013-01-24 20:14:00,11.1,-0.8,30.36,WNW,292,0.0,-999.0,58,-99.99,,,0.00,Acu-Link.com,2013-01-25 01:14:00,
2013-01-24 20:30:00,10.4,-0.3,30.36,WNW,292,0.0,-999.0,61,-99.99,,,0.00,Acu-Link.com,2013-01-25 01:30:00,
2013-01-24 20:45:00,9.7,0.3,30.34,WNW,292,5.3,-999.0,65,-99.99,,,0.00,Acu-Link.com,2013-01-25 01:45:00,
2013-01-24 21:01:00,9.7,-0.3,30.34,West,270,3.2,-999.0,63,-99.99,,,0.00,Acu-Link.com,2013-01-25 02:01:00,
2013-01-24 21:16:00,9.1,-0.2,30.34,South,180,2.2,-999.0,65,-99.99,,,0.00,Acu-Link.com,2013-01-25 02:16:00,
2013-01-24 21:31:00,8.6,0.5,30.35,ESE,112,0.0,-999.0,69,-99.99,,,0.00,Acu-Link.com,2013-01-25 02:31:00,
2013-01-24 21:47:00,7.7,1.7,30.34,East,90,0.0,-999.0,76,-99.99,,,0.00,Acu-Link.com,2013-01-25 02:47:00,
2013-01-24 22:02:00,7.7,2.0,30.34,SW,225,0.0,-999.0,77,-99.99,,,0.00,Acu-Link.com,2013-01-25 03:02:00,
2013-01-24 22:17:00,5.5,2.0,30.34,WNW,292,0.0,-999.0,85,-99.99,,,0.00,Acu-Link.com,2013-01-25 03:17:00,
2013-01-24 22:33:00,4.6,3.0,30.34,ESE,112,0.0,-999.0,93,-99.99,,,0.00,Acu-Link.com,2013-01-25 03:33:00,
2013-01-24 22:48:00,5.7,2.7,30.36,East,90,1.1,-999.0,87,-99.99,,,0.00,Acu-Link.com,2013-01-25 03:48:00,
2013-01-24 23:03:00,5.5,2.5,30.36,SE,135,0.0,-999.0,87,-99.99,,,0.00,Acu-Link.com,2013-01-25 04:03:00,
2013-01-24 23:19:00,4.5,2.5,30.36,South,180,0.0,-999.0,91,-99.99,,,0.00,Acu-Link.com,2013-01-25 04:19:00,
2013-01-24 23:34:00,3.7,3.3,30.36,SE,135,0.0,-999.0,98,-99.99,,,0.00,Acu-Link.com,2013-01-25 04:34:00,
2013-01-24 23:49:00,3.9,3.5,30.34,NE,45,0.0,-999.0,98,-99.99,,,0.00,Acu-Link.com,2013-01-25 04:49:00,